Torna al catalogo

STARLINK-31705

AttivoComunicazioniVLEO
NORAD 59382·PAYLOAD·🇺🇸 United States

Lanciato Apr 2, 2024 da Vandenberg Space Force Base

Loading…

Prossimi Passaggi (prossime 24 ore)

TLE

AggiornatoSource: CelesTrak SupGP

Epoca: Sep 15, 2026, 03:22 UTC

1 59382C 24062J   26258.14076389 -.00020192  00000+0 -59662-3 0  2586
2 59382  53.1572  92.5960 0000978  83.3648 172.0966 15.34399568    14

Traccia STARLINK-31705 in tempo reale con AllMySat

Download on the App Store